This demonstration page uses our WeatherBlox Daily Observations layout. Learn more.

Left ArrowRight Arrow

34.02893, -84.19858

Hourly Observations for April 19, 2019

Temp ( °F °C ) Dew Point ( °F °C ) Humidity (%) Winds ( mph kmh ) Pressure ( in mb ) Visibility ( mi km ) Precip ( " mm )
12:29 am 00:29 Cloudy with Rain 66 18.9 59 15 78 78 WSW 17 28 29.79 1009 4 6 0.04 1.02
12:53 am 00:53 Cloudy with Rain 63 17.2 61 16.1 93 93 SW 10 17 29.78 1008 4 6 0.09 2.29
1:53 am 01:53 Cloudy with Light Rain 61 16.1 61 16.1 100 100 VRB 5 7 29.66 1005 5 8 0.14 3.56
2:53 am 02:53 Mostly Cloudy 62 16.7 61 16.1 96 96 VRB 5 7 29.58 1002 10 16 0.03 0.76
3:15 am 03:15 Cloudy 63 17.2 61 16.1 93 93 VRB 3 6 29.57 1002 10 16 0.00 0.00
3:49 am 03:49 Cloudy with Nearby Thunderstorms 64 18 63 17 94 94 SE 8 13 29.55 1001 10 16 0.00 0.00
3:53 am 03:53 Cloudy with Nearby Thunderstorms 64 17.8 62 16.7 93 93 SE 7 11 29.54 1000 9 14 0.00 0.03
4:13 am 04:13 Cloudy with Rain 64 17.8 62 16.7 93 93 SE 7 11 29.55 1001 5 8 0.04 1.02
4:23 am 04:23 Cloudy with Thunderstorms 64 17.8 63 17.2 96 96 SE 7 11 29.55 1001 4 6 0.07 1.78
4:44 am 04:44 Cloudy with Thunderstorms 64 17.8 63 17.2 96 96 SE 8 13 29.54 1000 3 4 0.19 4.83
4:53 am 04:53 Cloudy with Thunderstorms 64 17.8 63 17.2 96 96 SSE 10 17 29.56 1001 3 5 0.25 6.35
4:56 am 04:56 Cloudy with Strong Thunderstorms 64 17.8 63 17.2 96 96 W 23 37 29.61 1003 2 3 0.04 1.02
5:01 am 05:01 Cloudy with Strong Thunderstorms 63 17.2 61 16.1 93 93 WSW 22 35 29.61 1003 1 1 0.27 6.86
5:05 am 05:05 Cloudy with Strong Thunderstorms 61 16.1 60 15.6 97 97 SW 16 26 29.63 1003 1 1 0.53 13.46
5:13 am 05:13 Cloudy with Strong Thunderstorms 61 16.1 60 15.6 97 97 S 8 13 29.60 1002 1 1 0.80 20.32
5:16 am 05:16 Cloudy with Strong Thunderstorms 61 16.1 61 16.1 100 100 S 10 17 29.59 1002 1 2 0.83 21.08
5:26 am 05:26 Cloudy with Strong Thunderstorms 60 15.6 59 15 96 96 SE 10 17 29.57 1001 2 3 0.92 23.37
5:37 am 05:37 Cloudy with Thunderstorms 60 15.6 60 15.6 100 100 SSE 10 17 29.58 1002 4 6 0.96 24.38
5:53 am 05:53 Cloudy with Nearby Thunderstorms 60 15.6 60 15.6 100 100 SSE 9 15 29.55 1001 3 5 1.03 26.16
5:57 am 05:57 Cloudy with Nearby Thunderstorms 60 15.6 60 15.6 100 100 SSE 8 13 29.57 1001 3 4 0.03 0.76
6:09 am 06:09 Cloudy with Nearby Thunderstorms 60 15.6 60 15.6 100 100 VRB 3 6 29.55 1001 3 5 0.09 2.29
6:18 am 06:18 Cloudy with Nearby Thunderstorms 60 15.6 60 15.6 100 100 SSE 9 15 29.58 1002 4 6 0.12 3.05
6:27 am 06:27 Cloudy with Nearby Thunderstorms 60 15.6 60 15.6 100 100 SE 8 13 29.56 1001 3 4 0.18 4.57
6:43 am 06:43 Cloudy with Nearby Thunderstorms 61 16.1 60 15.6 97 97 SE 6 9 29.55 1001 4 6 0.25 6.35
6:53 am 06:53 Cloudy with Nearby Thunderstorms 61 16.1 61 16.1 100 100 VRB 7 11 29.53 1000 3 5 0.29 7.37
7:00 am 07:00 Cloudy with Rain 61 16.1 61 16.1 100 100 Calm 29.55 1001 3 5 0.03 0.76
7:07 am 07:07 Cloudy with Rain 61 16.1 61 16.1 100 100 SE 5 7 29.54 1000 3 5 0.05 1.27
7:49 am 07:49 Cloudy with Rain 63 17 61 16 94 94 VRB 5 7 29.53 1000 3 4 0.22 5.59
7:53 am 07:53 Cloudy with Rain 62 16.7 61 16.1 96 96 VRB 6 9 29.50 999 3 4 0.23 5.84
8:04 am 08:04 Cloudy with Rain 62 16.7 62 16.7 100 100 SE 3 6 29.52 1000 3 4 0.05 1.27
8:13 am 08:13 Cloudy with Nearby Thunderstorms 62 16.7 62 16.7 100 100 VRB 5 7 29.52 1000 3 4 0.11 2.79
8:19 am 08:19 Cloudy with Thunderstorms 62 16.7 62 16.7 100 100 VRB 5 7 29.52 1000 3 4 0.12 3.05
8:30 am 08:30 Cloudy with Nearby Thunderstorms 62 16.7 62 16.7 100 100 VRB 5 7 29.50 999 3 4 0.15 3.81
8:48 am 08:48 Cloudy with Thunderstorms 63 17 63 17 100 100 SE 5 7 29.51 999 3 4 0.24 6.10
8:53 am 08:53 Cloudy with Strong Thunderstorms 62 16.7 62 16.7 100 100 SE 3 6 29.49 999 3 4 0.32 8.13
9:00 am 09:00 Cloudy with Strong Thunderstorms 62 16.7 62 16.7 100 100 SE 6 9 29.51 999 1 2 0.12 3.05
9:02 am 09:02 Cloudy with Heavy Rain 62 16.7 62 16.7 100 100 undefined N/A 29.51 999 1 2 0.14 3.56
9:53 am 09:53 Cloudy with Heavy Rain 62 16.7 62 16.7 100 100 VRB 3 6 29.48 998 1 1 0.66 16.76
10:03 am 10:03 Cloudy with Rain 62 16.7 62 16.7 100 100 VRB 3 6 29.50 999 2 2 0.06 1.52
10:18 am 10:18 Cloudy with Rain 62 16.7 62 16.7 100 100 SSE 3 6 29.50 999 2 3 0.11 2.79
10:53 am 10:53 Cloudy with Rain 63 17.2 63 17.2 100 100 SSE 3 6 29.46 998 2 3 0.22 5.59
10:58 am 10:58 Cloudy with Light Rain 63 17.2 63 17.2 100 100 SSE 5 7 29.47 998 3 5 0.00 0.03
11:20 am 11:20 Cloudy with Light Rain 64 17.8 64 17.8 100 100 S 8 13 29.47 998 2 3 0.03 0.76
11:31 am 11:31 Cloudy with Light Rain 64 17.8 64 17.8 100 100 S 6 9 29.47 998 8 13 0.03 0.76
11:53 am 11:53 Cloudy 65 18.3 63 17.2 93 93 SW 7 11 29.44 997 10 16 0.03 0.76
12:14 pm 12:14 Cloudy 66 18.9 63 17.2 90 90 SW 8 13 29.45 997 10 16 0.01 0.25
12:53 pm 12:53 Cloudy 66 18.9 62 16.7 87 87 WSW 10 17 29.42 996 10 16 0.01 0.25
1:00 pm 13:00 Cloudy 66 18.9 63 17.2 90 90 WSW 8 13 29.43 997 10 16 0.00 0.00
1:53 pm 13:53 Cloudy 68 20 60 15.6 76 76 SW 13 20 29.43 997 10 16 0.00 0.00
2:00 pm 14:00 Mostly Cloudy 69 20.6 60 15.6 73 73 SW 17 28 29.42 996 10 16 0.00 0.00
2:07 pm 14:07 Mostly Cloudy 68 20 60 15.6 76 76 SW 10 17 29.42 996 10 16 0.00 0.00
2:53 pm 14:53 Mostly Cloudy 67 19.4 57 13.9 71 71 WSW 23 37 29.43 997 10 16 0.00 0.00
2:57 pm 14:57 Mostly Cloudy with Light Rain 63 17.2 58 14.4 84 84 W 17 28 29.45 997 2 3 0.05 1.27
3:13 pm 15:13 Cloudy with Light Rain 61 16.1 59 15 93 93 WSW 13 20 29.47 998 8 13 0.07 1.78
3:26 pm 15:26 Cloudy 62 16.7 60 15.6 93 93 WSW 10 17 29.46 998 10 16 0.07 1.78
3:39 pm 15:39 Cloudy 64 17.8 60 15.6 87 87 WSW 13 20 29.45 997 10 16 0.07 1.78
3:50 pm 15:50 Cloudy 63 17 59 15 88 88 SSW 16 26 29.46 997 10 16 0.07 1.78
3:53 pm 15:53 Cloudy 63 17.2 59 15 87 87 SW 17 28 29.45 997 10 16 0.07 1.78
4:07 pm 16:07 Cloudy 62 16.7 57 13.9 84 84 SW 16 26 29.47 998 10 16 0.00 0.00
4:53 pm 16:53 Cloudy 62 16.7 57 13.9 84 84 WSW 12 19 29.44 997 10 16 0.01 0.25
5:49 pm 17:49 Cloudy 57 14 52 11 82 82 WSW 15 24 29.50 999 10 16 0.00 0.00
5:53 pm 17:53 Cloudy 57 13.9 51 10.6 81 81 WSW 16 26 29.49 999 10 16 0.00 0.00
6:53 pm 18:53 Cloudy 57 13.9 48 8.9 72 72 WSW 16 26 29.51 999 10 16 0.00 0.00
7:53 pm 19:53 Cloudy with Light Rain 53 11.7 47 8.3 80 80 W 16 26 29.55 1001 10 16 0.00 0.03
8:31 pm 20:31 Cloudy 51 10.6 46 7.8 83 83 W 18 30 29.60 1002 10 16 0.00 0.03
8:39 pm 20:39 Cloudy 51 10.6 46 7.8 83 83 WSW 15 24 29.60 1002 8 13 0.00 0.03
8:53 pm 20:53 Cloudy 50 10 47 8.3 89 89 WSW 13 20 29.59 1002 10 16 0.00 0.03
9:22 pm 21:22 Cloudy 50 10 45 7.2 83 83 W 15 24 29.62 1003 10 16 0.00 0.00
9:53 pm 21:53 Mostly Cloudy 49 9.4 43 6.1 80 80 W 16 26 29.62 1003 10 16 0.00 0.03
10:04 pm 22:04 Partly Cloudy 48 8.9 42 5.6 80 80 W 14 22 29.65 1004 10 16 0.00 0.00
10:18 pm 22:18 Mostly Cloudy 48 8.9 42 5.6 80 80 W 12 19 29.65 1004 10 16 0.00 0.00
10:53 pm 22:53 Cloudy 46 7.8 39 3.9 77 77 W 16 26 29.64 1004 10 16 0.00 0.00
11:33 pm 23:33 Partly Cloudy 46 7.8 40 4.4 79 79 WSW 10 17 29.67 1005 10 16 0.00 0.00

Powered by AerisWeather